User: anonymous   Login
Location: Unspecified
(0.0000°N, 0.0000°E)
Time: 14:04:02
(UTC+00:00)
Language:

CARTOSAT 2 - Orbit

View from above orbital plane
View from above orbital plane
View from above satellite
View from above satellite

Ground track
Ground track

The orbit data is extracted from the following two-line orbital elements,

1 29710U 07001B   18320.17343975 -.00000124  00000-0 -10096-4 0  9999
2 29710  97.8575  16.2690 0000892  84.3130 275.8207 14.78721879639591
Epoch (UTC): 16 November 2018 04:09:45
Eccentricity: 0.0000892
inclination: 97.8575°
perigee height: 633 km
apogee height: 634 km
right ascension of ascending node: 16.2690°
argument of perigee: 84.3130°
revolutions per day: 14.78721879
mean anomaly at epoch: 275.8207°
orbit number at epoch: 63959

The dashed part of the orbit path shows where the satellite is in the earth's shadow,  

DLR